Date,TemperatureHighF,TemperatureAvgF,TemperatureLowF,DewpointHighF,DewpointAvgF,DewpointLowF,HumidityHigh,HumidityAvg,HumidityLow,PressureMaxIn,PressureMinIn,WindSpeedMaxMPH,WindSpeedAvgMPH,GustSpeedMaxMPH,PrecipitationSumIn
2013-1-1,9.8,0.9,-12.0,4.1,-2.9,-15.2,88,84,75,30.31,30.21,8,3,11,0.00
2013-1-2,21.4,17.0,7.2,16.4,12.3,2.6,89,82,69,30.22,30.09,11,7,19,0.00
2013-1-3,24.5,18.9,11.1,21.7,15.5,7.8,94,86,83,30.24,30.09,16,7,17,0.00
2013-1-4,26.1,15.9,7.7,19.5,11.9,4.2,90,84,75,30.24,30.10,18,10,19,0.00
2013-1-5,34.0,22.1,5.8,32.2,19.7,3.3,94,90,86,30.25,29.88,21,8,21,0.00
2013-1-6,33.9,24.1,12.1,31.7,20.2,9.4,92,85,74,30.30,29.88,16,4,16,0.02
2013-1-7,32.5,24.1,12.6,26.4,19.9,10.0,100,84,73,30.30,30.03,32,14,35,0.00
2013-1-8,37.4,30.4,18.4,32.3,26.7,16.7,95,86,78,30.13,29.91,27,10,29,0.01
2013-1-9,37.8,31.8,18.0,33.6,26.1,14.8,91,80,66,30.46,29.90,27,11,29,0.00
2013-1-10,38.4,29.4,16.2,34.9,25.9,13.8,94,87,75,30.52,29.90,19,6,20,0.22
2013-1-11,43.7,38.4,34.5,43.0,37.6,33.5,100,97,94,29.91,29.59,20,7,21,0.04
2013-1-12,45.3,34.3,22.7,42.4,29.7,17.2,98,83,74,30.01,29.58,30,12,31,0.00
2013-1-13,22.7,16.9,11.5,17.5,11.1,5.1,82,78,72,30.24,29.92,21,7,21,0.00
2013-1-14,23.0,13.6,5.9,14.0,8.2,2.5,92,79,65,30.48,30.24,16,5,17,0.00
2013-1-15,28.0,18.6,10.6,18.7,13.1,7.5,89,79,63,30.47,30.09,20,7,20,0.00
2013-1-16,31.7,25.0,16.3,29.2,20.1,11.7,91,81,73,30.11,29.76,27,10,29,0.00
2013-1-17,23.6,16.6,8.8,16.9,8.1,3.8,82,69,54,30.44,30.11,15,3,17,0.00
2013-1-18,39.1,27.1,6.6,33.0,22.3,2.6,89,82,75,30.45,29.82,40,11,40,0.00
2013-1-19,41.5,34.0,12.3,35.3,28.0,3.1,91,79,43,29.95,29.61,38,10,42,0.00
2013-1-20,13.2,8.9,5.5,3.1,0.4,-1.1,75,68,55,30.33,29.95,29,5,29,0.00
2013-1-21,8.4,0.9,-5.4,1.6,-7.0,-13.0,80,69,58,30.35,30.18,24,6,24,0.00
2013-1-22,4.3,-1.9,-6.8,-4.5,-9.0,-13.4,81,71,60,30.42,30.34,16,4,17,0.00
2013-1-23,16.5,9.3,-0.6,13.0,4.2,-5.5,88,79,66,30.48,30.13,23,8,23,0.00
2013-1-24,16.4,6.8,-0.9,11.5,0.7,-6.1,87,76,67,30.72,30.41,14,4,15,0.00
2013-1-25,22.0,18.0,12.4,18.3,13.3,7.9,89,82,65,30.41,29.96,20,6,20,0.00
2013-1-26,19.1,10.1,1.8,12.0,5.6,-1.8,87,82,72,30.44,30.23,9,2,10,0.00
2013-2-2,10.0,4.8,-0.8,3.4,-0.3,-4.0,87,79,71,30.19,30.09,10,-4,12,0.00
2013-2-3,16.3,9.6,-0.6,9.5,5.2,-4.0,89,82,72,30.10,30.01,18,4,18,0.00
2013-2-4,14.5,10.2,3.2,10.2,5.4,-1.3,92,81,61,30.09,29.99,11,4,12,0.00
2013-2-5,26.6,16.9,3.7,23.4,13.2,-0.9,91,85,78,30.16,29.81,21,7,25,0.00
2013-2-6,32.2,17.9,1.2,28.8,14.3,-2.0,100,86,75,30.29,30.12,17,3,18,0.00
2013-2-7,33.3,29.2,20.7,31.6,27.6,19.2,96,94,87,30.16,29.96,23,8,26,0.12
2013-2-8,22.3,17.4,2.8,20.5,14.8,0.1,98,89,83,30.45,30.12,23,7,24,0.00
2013-2-9,27.1,19.8,-1.7,24.4,17.3,-4.9,94,90,86,30.47,30.14,22,7,23,0.00
2013-2-10,41.4,33.5,18.9,40.6,31.6,16.9,97,93,87,30.14,29.40,28,9,30,0.48
2013-2-11,38.1,31.3,26.8,35.6,27.4,21.4,92,85,78,29.99,29.38,32,16,35,0.00
2013-2-12,26.8,23.6,21.0,22.1,19.4,16.9,91,84,77,30.10,29.89,20,9,26,0.00
2013-2-13,35.1,27.9,19.9,30.0,24.9,18.3,94,89,79,29.90,29.70,16,7,18,0.00
2013-2-14,34.9,31.6,23.9,33.3,29.3,21.7,100,91,81,30.04,29.59,17,6,18,0.12
2013-2-15,23.7,16.6,9.7,21.4,9.6,5.0,91,74,56,30.25,30.04,15,4,16,0.00
2013-2-16,16.9,9.8,2.5,6.1,2.3,-4.5,91,71,58,30.26,30.19,11,2,13,0.00
2013-2-17,26.6,12.0,-4.9,18.0,4.0,-8.9,86,70,57,30.28,30.01,17,4,20,0.00
2013-2-18,41.4,33.8,26.2,36.1,28.2,18.0,95,80,69,30.01,29.45,25,8,25,0.09
2013-2-19,28.6,13.7,7.0,27.0,9.6,0.3,100,83,72,30.21,29.51,19,7,19,0.00
2013-2-20,22.3,12.5,3.9,12.6,5.8,-0.9,81,74,64,30.46,30.21,16,4,16,0.00
2013-2-21,25.5,17.6,8.1,23.4,14.5,3.7,95,88,77,30.51,30.16,23,8,23,0.00
2013-2-22,31.8,26.9,22.6,30.0,24.9,20.3,100,92,84,30.17,29.82,22,6,24,0.07
2013-2-23,28.6,25.1,18.1,24.6,21.6,14.7,91,86,76,29.96,29.85,16,8,18,0.00
2013-2-24,32.0,24.8,15.3,26.1,20.9,12.6,93,85,77,30.18,29.96,9,3,10,0.01
2013-2-25,35.2,24.8,14.5,28.2,21.4,12.6,100,87,72,30.22,30.10,7,2,7,0.00
2013-2-26,32.7,29.2,21.7,29.1,26.5,20.1,96,90,79,30.12,29.70,33,10,33,0.01
2013-2-27,32.0,29.5,27.9,30.6,28.3,26.6,96,95,94,29.82,29.66,26,14,28,0.00
2013-2-28,32.4,29.5,23.2,30.4,26.1,19.8,95,87,78,30.18,29.82,23,12,26,0.00
2013-3-1,25.7,21.3,12.6,22.5,17.4,9.7,98,85,76,30.32,30.17,25,6,25,0.00
2013-3-2,24.4,14.2,4.5,15.8,9.2,1.6,90,80,66,30.31,30.22,15,4,16,0.00
2013-3-3,28.8,13.4,1.8,14.5,7.2,-1.1,90,77,53,30.24,30.16,9,-2,9,0.00
2013-3-4,30.2,19.3,3.0,24.1,14.8,-0.2,90,83,70,30.21,30.13,14,5,15,0.00
2013-3-5,29.7,26.7,23.9,25.5,23.7,22.3,94,88,75,30.13,29.95,26,6,28,0.00
2013-3-6,32.2,28.4,25.3,29.1,24.9,21.2,92,87,80,30.35,30.13,20,6,23,0.00
2013-3-7,31.3,21.3,8.8,22.1,16.3,6.3,91,81,68,30.49,30.35,7,2,7,0.00
2013-3-8,36.5,25.7,9.0,28.8,21.2,6.6,93,83,72,30.52,30.32,15,3,15,0.00
2013-3-9,33.4,31.1,28.0,27.7,25.7,23.9,84,80,78,30.33,30.21,13,4,15,0.00
2013-3-10,34.0,33.6,33.4,32.9,32.6,32.4,96,96,96,29.68,29.66,18,12,18,1.02
2013-3-11,33.8,32.3,28.0,33.3,31.2,24.6,98,96,87,29.76,29.56,16,5,18,0.07
2013-3-12,29.7,27.3,23.0,25.7,22.8,16.3,94,83,71,30.04,29.76,23,8,26,0.00
2013-3-13,30.6,23.4,18.0,16.3,14.5,11.8,92,70,48,30.34,30.05,14,3,20,0.00
2013-3-14,32.0,24.7,14.5,25.9,18.9,10.0,92,78,65,30.35,30.09,14,5,14,0.00
2013-3-15,33.6,29.8,26.6,32.2,28.0,24.8,95,93,87,30.09,29.89,17,6,18,0.03
2013-3-16,28.9,23.6,18.7,25.7,20.0,15.3,95,86,73,30.18,29.86,21,8,22,0.00
2013-3-17,27.0,19.4,12.9,18.1,12.5,6.4,87,74,65,30.34,30.08,14,7,15,0.00
2013-3-18,31.3,26.2,15.1,29.8,23.5,12.0,95,90,83,30.08,29.59,28,8,29,0.13
2013-3-19,26.1,19.8,13.8,16.0,12.0,8.8,87,72,57,30.07,29.71,29,14,31,0.00
2013-3-20,20.1,13.6,7.9,8.8,4.6,-0.4,72,67,59,30.11,30.06,22,6,23,0.00
2013-3-21,26.8,18.4,8.2,16.7,10.1,2.3,84,70,60,30.11,30.05,13,3,14,0.00
2013-3-22,34.3,20.3,6.6,21.9,13.9,3.2,89,77,58,30.14,30.07,6,1,8,0.00
2013-3-23,31.5,20.8,13.5,22.8,17.0,10.8,92,85,68,30.20,30.13,6,1,6,0.00
2013-3-24,31.1,28.6,25.0,28.8,25.4,21.7,94,88,77,30.13,29.84,24,10,27,0.00
2013-3-25,33.6,28.9,22.3,27.7,24.0,19.0,88,82,76,30.14,29.87,21,8,23,0.00
2013-3-26,39.7,34.6,29.3,30.6,27.6,24.4,83,76,67,30.27,30.14,9,3,11,0.00
2013-3-27,41.2,34.8,26.8,27.9,25.2,22.1,84,69,50,30.34,30.27,9,2,10,0.00
2013-3-28,42.6,32.5,22.5,28.0,23.9,19.4,92,72,50,30.38,30.31,8,-2,10,0.00
2013-3-29,47.3,34.6,23.4,30.2,25.0,20.5,90,70,41,30.37,30.25,5,2,6,0.00
2013-3-30,48.6,39.2,30.0,40.5,32.3,24.3,98,77,64,30.25,29.82,20,8,22,0.03
2013-3-31,44.2,37.6,30.9,39.0,33.4,22.1,95,85,63,29.93,29.71,21,7,22,0.00
2013-4-1,35.1,29.0,24.1,22.5,17.9,14.7,74,63,48,30.21,29.92,22,7,23,0.00
2013-4-2,37.9,30.1,23.5,21.6,18.4,16.2,75,62,43,30.35,30.21,16,5,17,0.00
2013-4-3,41.5,32.1,21.6,25.2,20.6,15.4,88,64,42,30.52,30.30,15,3,15,0.00
2013-4-4,54.0,40.6,29.8,38.5,29.5,22.3,75,65,50,30.29,29.97,23,6,24,0.00
2013-4-5,43.2,35.7,28.4,29.1,26.2,21.7,84,69,48,30.28,30.06,15,1,15,0.00
2013-4-6,57.0,44.0,30.0,48.6,37.2,26.6,93,78,55,30.20,29.54,25,9,26,0.04
2013-4-7,50.0,40.2,35.2,47.7,35.3,30.9,92,83,69,29.99,29.54,22,5,25,0.00
2013-4-8,45.7,39.5,35.6,43.0,36.6,30.7,95,89,80,30.04,29.69,21,6,24,0.39
2013-4-9,38.7,36.5,34.2,37.9,35.4,32.0,97,96,91,30.09,29.93,21,10,25,0.75
2013-4-10,37.0,33.9,31.5,34.7,32.1,30.0,96,93,82,30.16,29.96,23,6,26,0.81
2013-4-11,36.9,35.2,33.6,35.6,33.6,32.0,97,94,89,30.01,29.62,35,12,41,0.21
2013-4-12,38.7,34.6,32.7,36.1,33.3,31.1,97,95,88,29.80,29.56,13,5,16,0.07
2013-4-13,36.9,34.1,30.6,31.5,29.6,27.0,94,84,72,30.03,29.78,20,7,21,0.01
2013-4-14,49.8,36.3,29.3,45.1,33.3,27.0,94,89,85,30.06,29.61,27,8,29,0.04
2013-4-15,58.6,47.7,39.9,50.7,43.3,35.2,97,85,57,29.96,29.59,30,10,32,0.80
2013-4-16,49.8,40.7,33.1,39.7,34.1,29.8,88,78,59,30.33,29.95,15,4,18,0.00
2013-4-17,41.7,38.8,34.5,39.9,36.1,31.8,95,90,82,30.37,29.93,22,8,26,0.46
2013-4-18,52.0,42.8,39.6,51.4,41.7,35.4,100,96,85,29.95,29.32,34,9,38,0.37
2013-4-19,39.4,34.6,28.9,35.6,29.3,21.9,92,81,65,29.93,29.32,30,14,33,0.00
2013-4-20,43.2,33.4,25.5,26.8,21.5,14.5,82,64,33,30.44,29.93,22,4,23,0.00
2013-4-21,47.8,38.7,30.0,33.4,28.7,24.6,83,68,50,30.54,30.28,21,7,22,0.00
2013-4-22,65.7,51.3,41.4,46.2,38.8,32.5,78,63,44,30.30,30.01,19,8,22,0.00
2013-4-23,53.2,43.0,37.0,46.9,37.0,30.2,92,80,58,30.01,29.86,18,7,20,0.03
2013-4-24,51.6,41.8,32.0,33.8,28.7,23.4,83,62,36,30.05,29.98,20,6,22,0.00
2013-4-25,50.9,42.9,36.0,36.7,32.6,28.0,90,68,44,30.30,29.96,28,7,33,0.00
2013-4-26,68.4,53.6,36.3,48.6,40.3,30.2,84,62,45,30.30,30.12,32,8,32,0.00
2013-4-27,66.4,56.2,46.4,52.3,47.2,41.4,91,73,53,30.22,30.01,16,7,18,0.00
2013-4-28,71.4,57.7,40.5,49.5,44.1,37.6,92,64,37,30.01,29.77,13,3,16,0.00
2013-4-29,69.6,60.0,52.3,57.4,53.5,49.1,92,80,59,29.83,29.71,21,7,24,0.02
2013-4-30,85.5,70.2,58.5,64.6,57.1,52.2,92,67,34,29.84,29.64,31,13,33,0.19
2013-5-1,79.2,64.1,51.6,59.9,52.4,41.9,82,66,47,30.23,29.84,19,7,21,0.00
2013-5-2,52.9,44.4,36.5,46.0,39.1,34.7,94,82,68,30.31,30.20,23,12,25,0.49
2013-5-3,48.0,41.1,35.2,46.2,39.6,33.4,100,95,92,30.26,30.05,21,10,24,0.40
2013-5-4,69.3,55.6,44.4,56.3,48.5,42.3,93,79,51,30.09,30.02,15,6,15,0.00
2013-5-5,71.4,57.7,44.2,53.6,47.5,41.4,95,72,36,30.09,30.01,16,4,18,0.00
2013-5-6,73.4,58.8,43.7,52.7,45.5,38.8,92,65,30,30.09,29.99,10,3,13,0.00
2013-5-7,77.2,62.6,44.4,48.2,43.6,37.2,90,53,25,30.07,29.98,14,3,15,0.00
2013-5-8,79.3,64.7,48.7,51.1,46.4,41.7,87,55,27,30.04,29.94,10,2,11,0.00
2013-5-9,71.1,58.2,44.8,58.8,51.2,42.6,94,79,56,29.95,29.90,23,6,25,0.78
2013-5-10,50.4,43.8,39.9,46.2,41.7,38.3,95,92,84,30.01,29.90,24,10,27,0.69
2013-5-11,52.2,45.7,37.2,48.7,38.5,28.6,97,78,45,30.04,29.79,23,7,29,0.02
2013-5-12,52.3,42.2,34.0,34.2,30.3,26.6,87,64,40,30.15,30.04,18,4,20,0.00
2013-5-13,59.4,45.4,30.7,39.9,33.1,27.9,93,65,35,30.21,29.93,15,4,18,0.00
2013-5-14,79.0,65.3,48.7,59.2,50.3,35.2,71,59,44,29.93,29.51,22,8,23,0.00
2013-5-15,74.8,67.4,53.8,60.8,48.1,38.8,74,51,31,29.82,29.51,16,4,18,0.00
2013-5-16,77.4,62.9,48.4,54.1,47.0,34.9,89,58,40,29.99,29.82,17,5,18,0.00
2013-5-17,57.7,52.5,48.4,50.2,45.5,35.6,92,78,44,30.14,29.98,15,5,16,0.37
2013-5-18,76.5,63.1,51.6,66.4,56.3,48.2,92,79,64,30.09,29.93,14,0,15,0.00
2013-5-19,83.8,71.1,59.0,68.4,62.7,56.1,92,76,56,29.94,29.63,23,6,23,0.03
2013-5-20,82.2,73.3,62.2,63.9,61.1,58.5,92,67,47,29.78,29.60,28,8,30,0.03
2013-5-21,79.0,69.4,58.8,64.8,60.4,54.1,89,74,52,29.67,29.57,27,5,27,0.00
2013-5-22,62.4,57.7,52.3,59.2,55.8,50.9,96,93,87,29.79,29.62,17,5,18,0.73
2013-5-23,56.8,50.1,39.9,51.4,44.1,37.4,96,81,52,30.34,29.79,23,10,29,0.13
2013-5-24,60.3,48.1,35.8,48.2,39.3,33.4,93,73,46,30.48,30.32,12,2,13,0.01
2013-5-25,62.2,53.6,44.2,43.5,39.1,31.6,77,59,43,30.42,30.30,15,4,16,0.00
2013-5-26,64.8,53.3,37.8,46.2,41.7,35.2,93,67,45,30.33,30.17,15,5,21,0.00
2013-5-27,55.6,52.7,50.2,52.3,47.1,39.2,96,82,57,30.20,29.91,24,8,28,0.07
2013-5-28,67.8,57.1,50.2,64.6,55.7,49.1,97,95,88,29.92,29.72,10,3,11,0.38
2013-5-29,80.1,68.7,59.2,68.9,63.5,58.3,98,85,64,29.89,29.77,22,5,22,0.08
2013-5-30,83.5,72.6,62.2,71.4,66.6,60.6,96,83,63,29.88,29.68,29,10,39,0.51
2013-5-31,73.8,68.1,63.3,68.7,63.7,61.0,93,86,74,29.76,29.66,22,10,23,0.03
2013-6-1,76.3,68.4,60.1,67.5,63.5,56.5,97,85,66,29.66,29.55,24,7,26,0.35
2013-6-2,62.1,54.8,47.8,58.6,47.0,42.3,92,76,55,30.02,29.64,18,4,20,0.00
2013-6-3,69.3,57.0,42.4,51.8,46.9,40.8,96,72,43,30.10,30.00,12,3,13,0.00
2013-6-4,66.0,57.3,50.5,56.1,50.3,44.4,93,78,64,30.18,30.07,17,5,20,0.07
2013-6-5,60.8,54.2,49.5,54.7,49.8,46.8,95,85,64,30.17,29.98,15,5,19,0.17
2013-6-6,58.5,54.2,50.5,55.2,51.2,47.5,96,90,78,29.98,29.94,13,4,14,0.34
2013-6-7,70.0,58.9,50.7,55.8,51.1,47.7,92,77,50,30.01,29.92,9,2,10,0.02
2013-6-8,70.0,59.7,47.8,57.6,52.4,45.7,96,78,52,30.01,29.92,12,2,13,0.00
2013-6-9,76.6,65.1,54.1,64.0,56.5,47.5,86,74,58,30.02,29.82,21,7,21,0.00
2013-6-10,77.4,67.7,58.1,66.6,62.0,56.3,95,83,67,29.84,29.76,10,2,15,0.00
2013-6-11,80.8,70.2,59.5,67.5,63.4,58.5,97,80,61,29.90,29.78,12,2,14,0.00
2013-6-12,78.8,67.0,58.3,69.3,63.4,55.9,95,89,67,29.90,29.63,22,4,26,0.71
2013-6-13,73.9,65.2,57.0,62.6,57.9,53.8,93,78,59,30.06,29.73,17,5,21,0.00
2013-6-14,75.4,63.9,49.6,60.8,54.4,48.0,96,73,55,30.13,29.99,12,2,14,0.01
2013-6-15,76.8,66.3,55.8,70.7,62.1,49.3,96,86,68,30.06,29.77,40,6,40,1.11
2013-6-16,81.3,70.4,59.0,65.8,60.4,54.9,98,74,43,29.87,29.81,16,3,17,0.01
2013-6-17,83.7,68.5,55.8,65.3,58.5,52.7,91,73,39,29.98,29.82,22,5,24,0.00
2013-6-18,70.5,60.6,52.2,56.5,50.8,46.0,91,72,44,30.09,29.97,18,5,18,0.00
2013-6-19,75.9,62.6,45.9,57.7,50.6,43.9,93,67,44,30.15,30.06,13,3,15,0.00
2013-6-20,84.6,71.0,56.1,65.1,55.9,43.7,74,60,42,30.14,30.02,15,5,16,0.00
2013-6-21,75.6,71.4,65.1,69.3,64.5,56.5,93,79,61,30.07,29.90,17,0,21,1.26
2013-6-22,76.5,71.1,67.5,71.6,68.0,65.8,97,90,82,30.06,29.87,19,5,23,0.15
2013-6-23,84.0,73.9,64.4,76.6,69.2,63.1,96,86,73,29.98,29.81,22,9,22,0.04
2013-6-24,78.1,72.3,67.5,71.1,68.4,66.0,96,88,74,29.97,29.79,18,6,21,0.00
2013-6-25,78.3,71.2,66.9,72.5,68.4,65.5,97,91,80,29.91,29.75,14,0,15,0.37
2013-6-26,81.7,73.1,66.9,72.3,69.0,65.3,96,88,72,29.78,29.68,14,3,15,0.00
2013-6-27,84.6,74.7,66.6,73.9,68.9,64.2,97,83,54,29.75,29.64,18,3,22,0.01
2013-6-28,76.6,69.2,62.8,66.6,63.5,61.0,96,83,65,29.68,29.57,14,3,17,0.38
2013-6-29,72.1,65.8,62.1,64.2,61.7,56.8,97,87,71,29.84,29.61,19,7,21,1.48
2013-6-30,74.8,66.0,55.6,62.4,54.9,48.2,84,69,40,30.04,29.84,18,7,20,0.00
2013-7-1,78.8,67.1,55.0,60.4,54.7,50.2,85,66,41,30.12,30.04,15,4,17,0.00
2013-7-2,74.1,63.6,54.0,56.3,51.0,45.3,92,66,41,30.13,30.06,15,5,17,0.00
2013-7-3,70.2,63.9,58.8,63.5,59.4,51.3,94,85,74,30.09,30.00,12,3,13,0.02
2013-7-4,80.6,71.1,61.3,64.0,62.0,58.3,97,75,49,30.07,29.98,13,3,14,0.00
2013-7-5,83.7,73.9,63.1,69.3,64.9,61.0,93,75,54,30.04,29.94,17,6,19,0.00
2013-7-6,85.3,74.5,63.9,69.6,65.4,61.0,92,75,51,30.01,29.91,13,1,14,0.00
2013-7-7,86.5,75.9,66.4,74.5,69.7,63.3,94,82,64,29.96,29.86,15,5,16,0.00
2013-7-8,85.1,75.8,69.1,76.3,71.9,67.6,97,88,73,29.96,29.84,21,4,24,0.60
2013-7-9,81.9,73.5,63.3,76.3,70.4,62.2,97,90,80,29.98,29.75,18,4,18,0.35
2013-7-10,77.5,71.8,63.5,71.2,63.5,57.9,95,76,55,30.00,29.78,18,2,18,0.00
2013-7-11,79.0,68.2,54.5,63.7,57.9,52.9,97,72,42,30.11,30.00,10,2,12,0.01
2013-7-12,82.4,69.9,56.5,64.6,57.5,50.0,94,68,35,30.15,30.06,10,2,12,0.00
2013-7-13,83.8,71.5,58.6,66.2,60.0,54.1,87,69,48,30.15,30.06,13,3,14,0.00
2013-7-14,87.3,76.2,63.0,70.7,65.8,58.3,86,71,54,30.21,30.14,13,2,17,0.00
2013-7-15,89.1,78.6,65.8,75.0,70.0,63.5,94,76,54,30.26,30.18,11,2,17,0.00
2013-7-16,90.7,81.2,72.1,78.4,74.7,70.0,96,82,63,30.25,30.17,11,2,12,0.00
2013-7-17,92.1,81.0,73.8,79.0,75.1,72.1,96,83,59,30.25,30.11,14,2,18,0.20
2013-7-18,90.9,81.9,72.3,78.1,74.4,71.1,97,79,60,30.13,29.83,19,5,23,0.00
2013-7-19,89.4,80.6,70.0,76.3,71.0,63.0,90,74,48,29.83,29.67,20,6,24,0.00
2013-7-20,80.8,70.9,60.4,66.2,61.9,56.8,94,74,56,29.97,29.78,12,2,13,0.00
2013-7-21,78.4,65.7,59.0,65.7,60.3,54.1,96,84,60,29.98,29.88,15,3,15,1.05
2013-7-22,82.8,71.8,59.7,72.9,67.2,58.8,98,87,67,29.89,29.60,15,3,18,0.01
2013-7-23,74.3,66.7,55.8,68.4,58.6,52.5,92,76,59,30.00,29.68,16,5,16,0.02
2013-7-24,73.2,61.9,50.2,57.7,53.4,48.6,96,76,50,30.09,30.00,10,1,11,0.00
2013-7-25,78.6,66.4,52.7,65.5,60.0,50.7,94,81,61,30.07,29.94,14,4,17,0.05
2013-7-26,77.4,67.4,57.9,68.9,62.4,55.0,96,85,56,29.95,29.80,15,3,16,0.01
2013-7-27,60.3,55.1,50.9,56.7,49.3,46.2,93,81,67,29.93,29.85,12,3,15,0.01
2013-7-28,67.3,58.1,51.6,56.3,52.4,49.5,95,82,66,29.99,29.83,14,3,17,0.01
2013-7-29,74.7,63.1,54.3,61.7,55.7,50.5,91,78,60,30.17,29.99,9,1,10,0.00
2013-7-30,77.7,65.0,53.8,64.9,59.8,52.3,96,84,59,30.18,30.07,10,1,12,0.02
2013-7-31,79.2,67.4,58.6,68.7,62.6,55.9,97,85,67,30.08,29.92,10,1,14,0.00
2013-8-1,77.9,66.5,56.5,60.6,57.3,54.5,96,75,47,29.97,29.88,12,1,18,0.00
2013-8-2,79.9,69.1,58.8,67.5,60.2,54.7,95,75,47,29.95,29.81,11,1,13,0.08
2013-8-3,77.5,65.7,52.0,59.7,54.8,49.5,95,70,42,30.13,29.95,11,1,17,0.00
2013-8-4,73.8,63.5,51.4,59.5,55.0,49.6,95,75,51,30.22,30.10,8,1,10,0.00
2013-8-5,73.9,63.6,54.1,64.8,58.7,51.8,94,84,70,30.12,29.84,11,2,13,0.00
2013-8-6,83.8,72.6,64.8,70.9,66.9,62.4,96,83,61,29.85,29.73,11,2,12,0.00
2013-8-7,76.5,68.8,62.2,70.0,64.1,59.5,97,85,69,29.97,29.71,12,-2,20,0.67
2013-8-8,80.1,67.3,57.4,62.8,58.1,51.8,96,74,48,30.04,29.96,9,1,9,0.00
2013-8-9,80.1,67.3,55.8,66.0,58.3,51.1,92,74,51,30.04,29.94,9,1,12,0.00
2013-8-10,75.7,63.6,52.2,61.0,56.1,50.5,96,78,53,30.15,30.04,11,0,13,0.00
2013-8-11,56.1,54.5,53.1,55.0,53.0,51.4,96,95,92,30.12,30.10,1,0,1,0.01
2013-8-12,80.2,72.2,61.2,68.4,63.3,57.0,98,74,57,30.00,29.87,15,2,17,0.00
2013-8-13,69.4,59.7,50.0,57.0,50.7,46.2,88,73,54,30.19,29.99,14,4,16,0.00
2013-8-14,73.9,59.5,44.4,55.6,50.7,42.8,96,75,48,30.23,30.12,9,1,13,0.00
2013-8-15,79.3,65.1,51.3,62.2,56.0,49.3,95,75,43,30.14,30.06,7,1,11,0.00
2013-8-16,82.8,66.5,52.2,63.0,56.6,50.9,97,73,42,30.19,30.11,8,-3,8,0.00
2013-8-17,63.9,56.4,53.4,60.4,54.0,51.8,95,92,84,30.23,30.19,4,0,7,0.00
2013-8-19,81.7,74.2,63.0,66.9,63.1,59.5,90,70,54,30.04,29.99,9,2,12,0.00
2013-8-20,81.9,67.3,62.1,70.7,63.6,59.7,95,88,66,30.05,30.00,10,2,12,0.00
2013-8-21,87.8,76.5,68.5,73.9,69.1,65.7,92,79,61,29.99,29.87,18,2,24,0.00
2013-8-22,79.0,69.8,61.2,70.3,65.2,53.1,96,86,73,30.11,29.97,11,1,13,0.00
2013-8-23,80.2,63.8,55.4,63.9,56.4,50.9,90,78,53,30.19,30.11,10,1,10,0.00
2013-8-24,82.9,70.1,54.0,69.3,61.2,50.7,91,75,56,30.25,30.13,13,2,13,0.00
2013-8-25,88.7,76.7,66.6,74.7,68.0,60.4,86,75,59,30.16,30.03,15,5,19,0.00
2013-8-26,79.3,72.2,69.8,71.4,67.7,66.4,90,86,75,30.10,30.01,13,3,14,0.00
2013-8-29,87.4,81.0,70.5,72.9,70.4,66.4,88,71,59,30.06,29.94,10,2,12,0.00
2013-8-30,90.0,76.1,64.6,78.8,70.5,61.5,95,84,69,29.94,29.75,14,4,17,0.00
2013-8-31,79.7,69.1,60.4,68.5,63.8,57.9,96,84,67,29.87,29.77,8,1,10,0.00
2013-9-1,86.0,69.6,59.5,73.0,64.2,57.4,98,84,59,29.82,29.67,11,2,15,0.02
2013-9-2,69.6,61.7,51.4,59.7,55.8,48.6,95,81,63,30.01,29.81,12,3,13,0.00
2013-9-3,52.7,50.9,48.7,50.2,48.6,46.6,93,91,90,30.04,30.01,4,0,5,0.00
2013-9-5,75.0,64.0,52.5,57.7,53.9,47.5,93,71,53,30.28,30.20,13,2,13,0.00
2013-9-6,85.8,67.3,48.2,70.2,59.5,46.2,95,78,56,30.23,29.95,11,2,12,0.00
2013-9-7,88.5,72.3,66.6,74.7,67.3,62.2,95,85,60,30.01,29.85,18,3,18,0.21
2013-9-8,70.5,65.7,60.4,64.4,61.6,58.1,94,87,80,30.07,29.93,16,5,19,0.07
2013-9-9,88.0,75.9,62.4,78.3,70.9,60.6,96,85,70,29.97,29.72,11,2,15,0.01
2013-9-10,93.2,74.2,72.7,71.4,70.0,68.7,89,87,45,29.83,29.75,9,2,14,0.00
2013-9-11,80.2,73.4,64.8,70.7,66.9,61.3,94,81,69,29.97,29.92,9,2,11,0.31
2013-9-12,72.9,63.2,53.1,62.4,55.5,44.8,97,77,53,30.13,29.94,15,4,19,0.01
2013-9-13,62.1,52.5,44.4,46.2,43.8,39.0,93,74,46,30.23,30.13,13,0,14,0.00
2013-9-14,71.4,55.8,39.4,52.5,47.0,37.9,97,75,45,30.19,29.99,12,2,14,0.00
2013-9-15,62.8,56.0,52.0,57.6,53.0,46.8,97,90,77,30.27,29.98,16,3,17,0.63
2013-9-16,61.5,50.9,40.8,51.1,44.9,38.7,93,81,61,30.43,30.27,13,3,16,0.00
2013-9-17,69.3,54.7,37.9,56.7,49.2,36.5,97,83,61,30.38,30.11,9,1,11,0.01
2013-9-18,78.8,66.7,57.9,69.1,61.8,54.5,93,85,70,30.11,29.86,14,4,18,0.13
2013-9-19,82.8,69.2,65.7,74.7,67.0,64.6,97,93,76,29.87,29.67,22,4,24,1.12
2013-9-20,72.3,64.9,57.0,66.2,61.2,53.4,98,88,68,29.80,29.67,14,3,17,0.12
2013-9-21,59.2,52.7,43.5,54.3,47.4,41.7,94,83,65,29.98,29.80,11,1,12,0.01
2013-9-22,59.4,48.7,37.8,49.1,43.5,36.3,100,83,61,30.12,29.98,12,1,12,0.00
2013-9-23,66.4,52.8,41.5,54.3,47.4,39.9,96,83,63,30.16,30.06,13,2,13,0.01
2013-9-24,69.3,56.4,45.0,58.5,51.0,43.3,97,83,62,30.08,29.98,13,2,13,0.01
2013-9-25,69.8,54.4,41.7,60.1,49.8,40.6,98,86,61,30.03,29.97,11,-2,11,0.01
2013-9-26,76.3,59.2,43.0,63.0,52.1,41.9,100,80,52,30.10,30.01,10,2,14,0.01
2013-9-27,78.6,64.8,52.0,59.9,54.1,48.0,93,70,46,30.15,30.04,12,2,14,0.00
2013-9-28,80.1,66.1,54.1,65.7,57.5,51.1,95,75,54,30.04,29.78,22,4,25,0.31
2013-9-29,71.4,56.4,43.2,55.0,47.6,42.1,100,76,40,30.06,29.93,6,0,8,0.01
2013-9-30,72.1,58.5,46.2,53.8,48.3,43.7,92,71,48,30.00,29.81,16,3,16,0.00
2013-10-1,80.2,64.8,54.5,64.6,57.3,48.9,95,78,56,29.95,29.79,19,5,22,0.00
2013-10-2,76.5,60.4,41.9,55.8,45.8,40.1,96,64,29,30.11,29.95,9,1,11,0.00
2013-10-3,74.1,65.4,59.2,68.2,59.6,38.3,97,83,44,29.97,29.82,13,2,15,0.40
2013-10-4,62.4,60.1,58.5,61.9,59.5,57.9,100,98,97,30.03,29.86,13,4,15,0.19
2013-10-5,69.3,64.2,58.5,68.7,63.4,57.9,100,97,95,29.97,29.70,11,3,14,0.29
2013-10-6,63.7,54.4,46.9,61.5,47.0,41.7,94,77,53,29.74,29.66,11,1,13,0.01
2013-10-7,65.5,52.0,43.5,49.1,45.2,41.4,96,80,46,30.09,29.71,13,2,15,0.04
2013-10-8,74.8,57.5,40.6,54.1,47.6,39.4,100,73,43,30.17,30.08,13,2,17,0.01
2013-10-9,73.8,59.4,49.1,55.2,49.6,44.6,91,72,43,30.21,30.11,12,2,14,0.00
2013-10-10,73.8,57.6,41.4,56.3,49.1,39.7,97,76,45,30.17,30.05,9,1,13,0.00
2013-10-11,75.0,62.2,52.9,61.9,54.4,48.9,92,77,52,30.06,29.91,16,3,17,0.00
2013-10-12,70.2,60.9,42.6,61.3,52.3,38.3,88,74,45,30.14,29.88,15,4,16,0.00
2013-10-13,60.3,46.9,36.0,46.2,39.0,34.2,95,76,48,30.43,30.14,10,1,12,0.00
2013-10-14,60.4,45.8,33.3,48.2,39.9,31.8,96,81,57,30.45,30.17,14,2,15,0.00
2013-10-15,57.6,53.1,42.4,56.7,50.5,40.3,97,91,84,30.17,29.73,13,3,15,0.36
2013-10-16,53.1,49.3,46.8,50.4,47.1,43.7,96,92,87,29.94,29.76,10,1,11,0.02
2013-10-17,54.7,45.9,39.9,44.4,40.9,37.2,94,84,57,29.93,29.80,9,0,11,0.00
2013-10-18,49.8,43.5,37.9,44.6,40.0,35.8,94,87,79,29.96,29.81,14,2,16,0.00
2013-10-19,52.9,41.4,32.5,40.5,36.5,31.3,96,84,52,29.93,29.73,15,1,19,0.01
2013-10-20,46.8,40.7,32.5,45.1,38.8,31.3,97,93,81,29.88,29.72,11,1,13,0.07
2013-10-21,45.1,38.0,30.6,43.5,31.3,22.8,94,77,59,29.95,29.74,17,4,18,0.00
2013-10-22,47.7,36.5,25.5,34.2,28.9,22.5,91,74,54,29.99,29.92,10,2,11,0.00
2013-10-23,44.1,34.9,27.0,30.4,27.3,23.7,91,75,47,30.04,29.97,14,1,14,0.00
2013-10-24,42.8,35.8,26.1,31.6,28.2,22.6,88,74,57,30.31,30.04,10,1,14,0.00
2013-10-25,50.4,38.2,23.5,35.1,28.2,21.6,100,70,48,30.39,29.87,27,6,27,0.00
2013-10-26,51.8,44.9,37.6,38.3,33.1,29.3,81,64,44,30.06,29.76,22,3,27,0.00
2013-10-27,54.0,40.0,27.3,34.9,30.6,24.8,92,71,43,30.09,29.90,18,3,20,0.00
2013-10-28,43.2,39.3,35.8,35.1,31.6,27.7,83,74,64,30.47,30.09,20,7,23,0.00
2013-10-29,50.7,41.2,32.7,43.0,36.1,27.1,93,82,73,30.46,30.16,11,3,13,0.00
2013-10-30,54.9,49.0,40.8,52.2,47.3,39.2,100,94,88,30.16,29.76,15,1,16,0.00
2013-10-31,60.8,53.9,42.6,60.3,53.2,41.5,98,97,96,29.77,29.23,16,2,19,1.08
2013-11-1,45.0,42.9,41.5,42.8,41.3,39.6,100,94,91,29.76,29.28,19,4,20,0.06
2013-11-2,43.9,41.2,37.8,41.0,38.6,35.8,96,91,75,30.18,29.75,9,2,10,0.04
2013-11-3,51.3,41.0,28.8,42.1,36.2,27.7,97,84,58,30.33,30.17,16,3,17,0.00
2013-11-4,52.5,48.1,43.3,45.5,41.3,38.1,87,77,65,30.26,30.04,19,2,22,0.00
2013-11-5,54.9,49.8,46.0,50.7,47.4,44.1,96,92,82,30.27,29.87,21,3,22,0.37
2013-11-6,53.6,41.8,28.8,52.5,39.1,25.3,97,90,77,30.17,29.69,20,5,22,0.19
2013-11-7,41.7,32.5,23.5,32.7,27.9,21.7,95,83,65,30.26,30.17,13,-2,13,0.00
2013-11-8,44.4,35.0,22.5,36.5,30.1,21.0,95,83,68,30.32,29.83,17,4,21,0.01
2013-11-9,50.7,44.5,39.0,41.5,36.5,27.5,85,73,61,30.06,29.75,23,8,27,0.01
2013-11-10,47.3,41.3,37.4,34.9,31.4,29.1,78,68,53,30.33,30.06,21,3,21,0.00
2013-11-11,41.4,31.5,23.2,35.8,25.7,16.3,95,79,65,30.59,30.06,22,6,22,0.09
2013-11-12,29.7,22.7,17.4,19.4,15.4,12.2,86,74,49,30.76,30.59,13,3,15,0.00
2013-11-13,41.5,29.7,17.4,21.7,18.4,13.5,88,65,40,30.60,30.06,27,10,32,0.00
2013-11-14,46.9,37.2,28.9,32.9,27.4,21.0,84,68,53,30.06,29.89,19,8,21,0.00
2013-11-15,54.1,41.6,32.7,41.0,34.4,28.8,92,76,60,29.95,29.89,13,5,15,0.00
2013-11-16,57.0,47.8,36.0,54.7,45.6,33.1,96,92,87,29.91,29.48,24,9,27,0.06
2013-11-17,57.4,50.0,40.3,55.0,47.6,34.0,97,91,78,29.63,29.16,25,7,32,1.15
2013-11-18,40.3,32.4,24.6,34.5,25.8,21.0,86,76,70,30.29,29.62,23,6,28,0.00
2013-11-19,39.7,29.7,19.0,30.9,24.8,17.1,100,82,62,30.42,30.28,13,2,13,0.00
2013-11-20,41.5,36.9,32.7,34.5,31.0,28.8,93,80,62,30.29,30.12,18,6,26,0.01
2013-11-21,42.6,39.0,36.1,39.6,36.7,34.3,95,92,85,30.28,30.14,12,2,13,0.00
2013-11-22,37.0,29.5,22.6,35.2,25.3,16.7,96,85,62,30.50,30.27,18,6,20,0.00
2013-11-23,25.5,17.0,10.4,18.3,8.9,4.1,80,70,56,30.77,30.43,20,6,21,0.00
2013-11-24,26.1,17.0,7.0,11.5,7.8,2.8,86,68,47,30.75,30.27,25,8,27,0.00
2013-11-25,30.2,26.2,21.4,27.0,21.6,10.6,91,83,60,30.28,30.02,26,11,30,0.00
2013-11-26,31.6,24.6,12.2,27.3,17.5,5.9,87,74,54,30.26,30.04,14,4,16,0.00
2013-11-27,26.8,18.5,9.1,18.5,12.0,5.0,90,76,57,30.31,30.24,16,3,17,0.00
2013-11-28,26.4,21.1,10.6,19.9,16.0,7.2,90,80,74,30.55,30.22,12,2,12,0.00
2013-11-29,29.3,20.4,6.6,23.0,15.5,3.9,92,82,67,30.68,30.39,16,2,18,0.00
2013-11-30,42.3,32.9,27.0,33.3,27.6,22.1,90,81,68,30.40,30.06,18,7,22,0.00
2013-12-1,39.0,30.8,25.0,31.5,26.8,22.6,93,85,69,30.19,30.04,8,1,9,0.00
2013-12-2,38.7,31.5,19.2,33.3,28.3,17.6,96,88,80,30.04,29.82,17,3,18,0.02
2013-12-3,36.9,35.2,33.6,36.0,34.1,32.0,97,96,93,29.82,29.75,17,7,21,0.07
2013-12-4,48.4,39.8,34.0,47.7,39.0,32.5,98,97,89,29.82,29.44,25,7,29,0.02
2013-12-5,35.4,22.2,12.6,32.4,16.4,7.2,92,78,67,30.32,29.60,26,11,27,0.00
2013-12-6,15.3,9.5,5.2,7.5,3.7,0.3,92,77,64,30.62,30.30,12,3,14,0.00
2013-12-7,13.1,5.5,0.1,3.9,-0.4,-3.8,92,76,61,30.77,30.62,11,3,13,0.00
2013-12-8,18.7,12.9,3.0,16.7,8.5,-1.3,94,82,67,30.69,30.02,16,6,17,0.00
2013-12-9,16.7,9.4,-5.6,14.5,5.0,-9.8,92,82,68,30.22,29.98,26,8,28,0.00
2013-12-10,17.1,7.2,-6.0,11.3,1.9,-10.1,86,79,71,30.32,29.97,22,2,24,0.00
2013-12-11,11.8,3.5,-9.6,9.1,-2.5,-15.0,89,76,62,30.59,30.31,15,3,16,0.00
2013-12-12,17.1,8.5,-4.9,12.0,3.1,-10.1,92,78,71,30.56,30.25,16,0,17,0.00
2013-12-13,19.9,16.7,12.2,14.7,12.2,8.8,88,82,76,30.32,30.21,18,3,20,0.00
2013-12-14,22.3,19.4,17.2,20.8,17.4,14.0,100,92,87,30.29,29.97,16,7,18,0.00
2013-12-15,19.0,7.7,-3.5,17.1,2.5,-9.2,92,79,67,30.20,29.95,18,5,19,0.00
2013-12-16,13.6,5.1,-7.8,11.3,0.8,-12.8,90,82,66,30.24,30.06,11,3,12,0.00
2013-12-17,32.4,23.4,13.6,26.6,19.3,11.3,100,85,73,30.10,29.93,18,7,19,0.03
2013-12-18,32.2,20.0,6.1,23.9,13.7,2.3,92,77,57,30.14,29.78,25,8,29,0.00
2013-12-19,27.9,23.2,17.6,24.3,20.6,15.6,94,90,85,30.08,29.83,23,4,23,0.00
2013-12-20,23.5,21.7,20.1,21.9,20.0,18.5,95,93,92,29.98,29.86,20,9,21,0.00
2013-12-21,25.3,23.9,21.9,24.1,22.6,20.7,100,95,94,29.96,29.80,18,5,20,0.00
2013-12-22,25.5,22.1,18.1,24.3,20.6,16.5,100,94,92,30.16,29.76,21,8,22,0.00
2013-12-23,21.4,14.0,6.1,19.9,12.0,3.4,94,92,89,30.47,30.16,13,3,14,0.00
2013-12-24,10.4,0.7,-13.7,7.9,-2.3,-17.3,90,87,83,30.61,30.38,16,3,17,0.00
2013-12-25,22.1,17.8,10.4,20.3,15.7,8.1,100,91,88,30.38,30.11,16,7,18,0.00
2013-12-26,20.8,17.4,9.3,19.0,14.9,7.0,96,90,85,30.29,30.12,12,3,13,0.00
2013-12-27,33.3,21.3,2.5,29.1,18.5,-0.2,94,89,84,30.32,30.03,27,7,30,0.00
2013-12-28,39.0,31.5,21.0,33.1,28.0,19.0,95,87,78,30.09,29.78,20,9,22,0.02
2013-12-29,32.4,16.7,-4.0,29.5,12.3,-9.0,94,82,71,30.27,29.74,25,7,26,0.00
2013-12-30,1.6,-5.2,-18.0,-1.8,-10.3,-21.8,85,78,66,30.42,30.26,8,3,9,0.00
2013-12-31,7.0,2.9,-4.2,2.1,-2.2,-10.5,88,79,69,30.46,30.27,13,5,15,0.00
2014-1-1,8.4,2.7,-4.9,2.5,-3.4,-10.5,78,75,73,30.50,30.41,17,9,18,0.00
2014-1-2,8.4,4.0,-10.7,3.9,-1.3,-15.5,95,78,70,30.51,30.37,19,7,20,0.00